EN

Hourly Weather Ladovskaya Balka

Today, 1 August, Sunday

Time Temperature Precipitation Wind Pressure Humidity
00:00 +27°C° 0 mm 2 mps 748 mmHg 37%
01:00 +26°C° 0 mm 2 mps 748 mmHg 40%
02:00 +25°C° 0 mm 2 mps 749 mmHg 42%
03:00 +25°C° 0 mm 2 mps 749 mmHg 45%
04:00 +25°C° 0 mm 2 mps 749 mmHg 47%
05:00 +25°C° 0 mm 2 mps 749 mmHg 49%
06:00 +25°C° 0 mm 2 mps 749 mmHg 51%
07:00 +27°C° 0 mm 2 mps 749 mmHg 45%
08:00 +30°C° 0 mm 1 mps 750 mmHg 39%
09:00 +32°C° 0 mm 1 mps 750 mmHg 33%
10:00 +35°C° 0 mm 2 mps 749 mmHg 28%
11:00 +37°C° 0 mm 2 mps 749 mmHg 24%
12:00 +39°C° 0 mm 2 mps 749 mmHg 19%
13:00 +39°C° 0 mm 2 mps 749 mmHg 18%
14:00 +40°C° 0 mm 3 mps 748 mmHg 17%
15:00 +40°C° 0 mm 3 mps 748 mmHg 16%
16:00 +41°C° 0 mm 4 mps 748 mmHg 16%
17:00 +40°C° 0 mm 4 mps 748 mmHg 16%
18:00 +40°C° 0 mm 4 mps 748 mmHg 17%
19:00 +37°C° 0 mm 4 mps 748 mmHg 20%
20:00 +34°C° 0 mm 3 mps 748 mmHg 24%
21:00 +31°C° 0 mm 3 mps 748 mmHg 27%
22:00 +30°C° 0 mm 2 mps 748 mmHg 30%
23:00 +29°C° 0 mm 2 mps 748 mmHg 32%

Tomorrow, 2 August, Monday

Time Temperature Precipitation Wind Pressure Humidity
00:00 +27°C° 0 mm 2 mps 748 mmHg 35%
01:00 +27°C° 0 mm 1 mps 748 mmHg 37%
02:00 +26°C° 0 mm 1 mps 748 mmHg 39%
03:00 +26°C° 0 mm 1 mps 748 mmHg 41%
04:00 +26°C° 0 mm 1 mps 749 mmHg 43%
05:00 +26°C° 0 mm 1 mps 749 mmHg 45%
06:00 +26°C° 0 mm 1 mps 749 mmHg 46%
07:00 +29°C° 0 mm 1 mps 749 mmHg 40%
08:00 +32°C° 0 mm 1 mps 750 mmHg 34%
09:00 +34°C° 0 mm 1 mps 750 mmHg 29%
10:00 +36°C° 0 mm 1 mps 749 mmHg 26%
11:00 +39°C° 0 mm 2 mps 749 mmHg 23%
12:00 +40°C° 0 mm 2 mps 749 mmHg 20%
13:00 +40°C° 0 mm 2 mps 748 mmHg 20%
14:00 +40°C° 0 mm 3 mps 748 mmHg 20%
15:00 +40°C° 0 mm 3 mps 748 mmHg 21%
16:00 +39°C° 0 mm 3 mps 748 mmHg 23%
17:00 +38°C° 0 mm 4 mps 748 mmHg 25%
18:00 +37°C° 0 mm 4 mps 748 mmHg 27%
19:00 +35°C° 0 mm 3 mps 748 mmHg 30%
20:00 +34°C° 0 mm 2 mps 748 mmHg 32%
21:00 +31°C° 0 mm 2 mps 748 mmHg 35%
22:00 +30°C° 0 mm 2 mps 748 mmHg 36%
23:00 +30°C° 0 mm 2 mps 748 mmHg 38%

Day after tomorrow, 3 August, Tuesday

Time Temperature Precipitation Wind Pressure Humidity
00:00 +29°C° 0 mm 2 mps 748 mmHg 39%
01:00 +28°C° 0 mm 2 mps 748 mmHg 44%
02:00 +27°C° 0 mm 2 mps 748 mmHg 48%
03:00 +27°C° 0 mm 2 mps 748 mmHg 52%
04:00 +26°C° 0 mm 2 mps 749 mmHg 54%
05:00 +26°C° 0 mm 3 mps 749 mmHg 55%
06:00 +26°C° 0 mm 3 mps 749 mmHg 56%
07:00 +28°C° 0 mm 3 mps 749 mmHg 49%
08:00 +32°C° 0 mm 4 mps 749 mmHg 42%
09:00 +35°C° 0 mm 4 mps 749 mmHg 35%
10:00 +37°C° 0 mm 4 mps 749 mmHg 30%
11:00 +38°C° 0 mm 3 mps 749 mmHg 26%
12:00 +40°C° 0 mm 3 mps 749 mmHg 21%
13:00 +41°C° 0 mm 2 mps 748 mmHg 19%
14:00 +42°C° 0 mm 2 mps 748 mmHg 17%
15:00 +43°C° 0 mm 2 mps 747 mmHg 15%
16:00 +42°C° 0 mm 2 mps 747 mmHg 16%
17:00 +41°C° 0 mm 2 mps 747 mmHg 17%
18:00 +40°C° 0 mm 2 mps 747 mmHg 18%
19:00 +38°C° 0 mm 2 mps 748 mmHg 19%
20:00 +37°C° 0 mm 3 mps 748 mmHg 21%
21:00 +35°C° 0 mm 4 mps 749 mmHg 23%
22:00 +34°C° 0 mm 4 mps 749 mmHg 26%
23:00 +33°C° 0 mm 4 mps 749 mmHg 29%

4 August, Wednesday

Time Temperature Precipitation Wind Pressure Humidity
00:00 +30°C° 0 mm 3 mps 749 mmHg 33%
01:00 +30°C° 0 mm 3 mps 750 mmHg 36%
02:00 +29°C° 0 mm 3 mps 750 mmHg 38%
03:00 +28°C° 0 mm 3 mps 750 mmHg 41%
04:00 +28°C° 0 mm 3 mps 750 mmHg 45%
05:00 +27°C° 0 mm 3 mps 751 mmHg 50%
06:00 +26°C° 0 mm 2 mps 751 mmHg 54%
07:00 +28°C° 0 mm 2 mps 751 mmHg 49%
08:00 +31°C° 0 mm 3 mps 751 mmHg 45%
09:00 +34°C° 0 mm 3 mps 752 mmHg 40%
10:00 +36°C° 0 mm 3 mps 751 mmHg 36%
11:00 +37°C° 0 mm 3 mps 751 mmHg 31%
12:00 +39°C° 0 mm 3 mps 751 mmHg 27%
13:00 +39°C° 0 mm 3 mps 751 mmHg 26%
14:00 +40°C° 0 mm 3 mps 750 mmHg 25%
15:00 +41°C° 0 mm 4 mps 750 mmHg 24%
16:00 +38°C° 0.2 mm 4 mps 750 mmHg 31%
17:00 +35°C° 0.2 mm 4 mps 751 mmHg 38%
18:00 +33°C° 0.2 mm 5 mps 751 mmHg 45%
19:00 +30°C° 0.1 mm 4 mps 751 mmHg 50%
20:00 +29°C° 0.1 mm 3 mps 751 mmHg 55%
21:00 +28°C° 0.1 mm 1 mps 751 mmHg 60%
22:00 +27°C° 0.2 mm 1 mps 751 mmHg 63%
23:00 +26°C° 0.2 mm 1 mps 752 mmHg 66%

5 August, Thursday

Time Temperature Precipitation Wind Pressure Humidity
00:00 +26°C° 0.2 mm 1 mps 752 mmHg 69%
01:00 +25°C° 0.7 mm 1 mps 752 mmHg 74%
02:00 +24°C° 0.7 mm 1 mps 752 mmHg 79%
03:00 +22°C° 0.7 mm 1 mps 753 mmHg 85%
04:00 +22°C° 0.6 mm 1 mps 753 mmHg 85%
05:00 +21°C° 0.6 mm 2 mps 753 mmHg 85%
06:00 +21°C° 0.6 mm 2 mps 753 mmHg 85%
07:00 +24°C° 0.1 mm 2 mps 753 mmHg 76%
08:00 +27°C° 0.1 mm 2 mps 753 mmHg 67%
09:00 +29°C° 0.1 mm 1 mps 753 mmHg 58%
10:00 +31°C° 0 mm 2 mps 753 mmHg 50%
11:00 +33°C° 0 mm 3 mps 753 mmHg 42%
12:00 +35°C° 0 mm 4 mps 752 mmHg 34%
13:00 +36°C° 0 mm 4 mps 752 mmHg 32%
14:00 +36°C° 0 mm 4 mps 752 mmHg 30%
15:00 +37°C° 0 mm 5 mps 751 mmHg 28%
16:00 +36°C° 0 mm 5 mps 751 mmHg 29%
17:00 +36°C° 0 mm 5 mps 751 mmHg 30%
18:00 +35°C° 0 mm 5 mps 751 mmHg 31%
19:00 +34°C° 0 mm 5 mps 751 mmHg 33%
20:00 +32°C° 0 mm 4 mps 751 mmHg 36%
21:00 +29°C° 0 mm 4 mps 751 mmHg 39%
22:00 +28°C° 0 mm 4 mps 750 mmHg 39%
23:00 +28°C° 0 mm 4 mps 750 mmHg 38%

6 August, Friday

Time Temperature Precipitation Wind Pressure Humidity
00:00 +27°C° 0 mm 4 mps 750 mmHg 38%
01:00 +27°C° 0 mm 4 mps 750 mmHg 40%
02:00 +27°C° 0 mm 4 mps 749 mmHg 42%
03:00 +27°C° 0 mm 4 mps 749 mmHg 43%
04:00 +27°C° 0 mm 5 mps 749 mmHg 43%
05:00 +27°C° 0 mm 5 mps 749 mmHg 44%
06:00 +27°C° 0 mm 5 mps 749 mmHg 44%
07:00 +29°C° 0 mm 6 mps 749 mmHg 40%
08:00 +32°C° 0 mm 7 mps 749 mmHg 36%
09:00 +35°C° 0 mm 8 mps 749 mmHg 32%
10:00 +37°C° 0 mm 8 mps 748 mmHg 30%
11:00 +38°C° 0 mm 8 mps 748 mmHg 29%
12:00 +39°C° 0 mm 8 mps 747 mmHg 27%
13:00 +40°C° 0 mm 8 mps 747 mmHg 27%
14:00 +40°C° 0 mm 8 mps 747 mmHg 26%
15:00 +41°C° 0 mm 8 mps 746 mmHg 25%
16:00 +40°C° 0 mm 7 mps 746 mmHg 26%
17:00 +40°C° 0 mm 7 mps 746 mmHg 27%
18:00 +39°C° 0 mm 6 mps 746 mmHg 28%
19:00 +38°C° 0 mm 6 mps 746 mmHg 29%
20:00 +35°C° 0 mm 6 mps 747 mmHg 31%
21:00 +34°C° 0 mm 6 mps 747 mmHg 33%
22:00 +33°C° 0 mm 6 mps 747 mmHg 33%
23:00 +32°C° 0 mm 6 mps 747 mmHg 34%
Show more